Back to catalog

STARLINK-11172

AliveCommunicationsVLEO
NORAD 60193·PAYLOAD·🇺🇸 United States

Launched Jul 3, 2024 from Cape Canaveral Space Force Station

Loading…

Next Passes (next 24 hours)

TLE

FreshSource: CelesTrak SupGP

Epoch: Sep 14, 2026, 13:58 UTC

1 60193C 24124L   26257.58243056  .00070708  00000+0  58261-3 0  2570
2 60193  53.1569 310.1674 0001299  84.2293 168.3409 15.69666883    11

Track STARLINK-11172 in real time with AllMySat

Download on the App Store